Temperature
17 17 18 18 18 18 18 18 18 18 18 18 18 18 18 18 18 18 18 18 17 17 17 17 17 17 17 17 17 17 17 17 17 17 17 18 18 18 18 18 18 17 17
17 17 17 18 18 18 18 18 18 18 18 18 18 18 18 18 18 18 18 18 18 17 17 17 17 17 17 17 17 17 17 17 17 17 17 17 17 17 17 17 17 17 17
17 17 17 17 17 17 17 17 17 17 18 18 18 18 18 18 18 18 18 18 18 18 17 17 17 17 17 17 17 17 17 17 17 17 17 17 17 17 17 17 17 17 17
16 17 17 17 17 17 17 17 17 17 18 18 18 18 18 18 18 18 18 18 18 18 17 17 17 17 17 17 17 17 17 17 17 17 17 17 17 17 17 17 17 16 16
16 16 17 17 17 17 17 17 17 17 17 18 18 18 18 18 18 18 18 18 18 18 17 17 17 17 17 17 17 17 17 17 17 17 17 17 17 16 16 16 16 16 16
16 16 16 16 17 17 17 17 17 17 17 17 17 18 18 18 18 18 18 18 18 18 17 17 17 17 17 17 17 17 17 17 17 17 16 16 16 16 16 16 16 16 16
15 15 16 16 16 16 17 17 17 17 17 17 17 17 18 18 18 18 18 18 18 18 18 17 17 17 17 17 17 17 17 17 17 16 16 16 16 16 16 16 16 16 16
14 15 15 15 16 16 16 16 16 16 17 16 16 16 17 17 18 18 18 18 18 18 18 17 17 17 17 17 17 17 17 17 17 16 16 16 16 16 16 16 16 16 16
14 14 15 15 15 15 16 16 16 16 16 16 16 16 16 16 17 18 18 18 18 18 18 18 17 17 17 17 17 17 17 17 17 16 16 16 16 16 16 16 16 16 16
13 14 14 15 15 15 15 16 16 16 16 16 16 16 16 16 17 17 17 18 18 18 18 18 17 17 17 17 17 17 17 17 17 16 16 16 16 16 16 16 16 16 16
13 13 14 14 14 15 15 15 15 15 16 16 16 16 15 16 16 16 17 17 17 18 18 18 17 17 17 17 17 17 17 17 17 16 16 16 16 16 16 16 16 16 16
13 13 13 14 14 14 15 15 15 15 15 15 15 16 16 16 16 16 16 17 17 18 18 17 17 17 17 17 17 17 17 17 16 16 16 16 16 16 16 16 16 15 15
12 13 13 13 14 14 14 14 15 15 15 15 15 15 15 16 16 16 16 16 16 17 17 17 17 17 17 17 17 17 17 17 16 16 16 16 16 16 16 15 15 15 15
12 12 13 13 13 13 14 14 14 15 15 15 15 15 15 15 15 15 15 15 16 16 16 17 17 17 17 17 17 17 17 16 16 16 16 16 15 15 15 15 15 15 15
12 12 12 13 13 13 13 14 14 14 14 15 15 15 15 15 15 15 15 15 15 15 16 16 17 17 17 17 17 17 16 16 16 16 15 15 15 15 15 15 15 15 14
12 12 12 12 13 13 13 13 14 14 14 14 14 14 14 14 15 15 15 15 15 15 15 16 16 17 16 16 16 16 16 16 16 15 15 15 15 15 15 14 14 14 14
11 12 12 12 12 12 13 13 13 13 14 14 14 14 14 14 14 14 14 14 14 14 15 15 15 16 16 16 16 16 16 15 15 15 15 14 14 14 14 14 14 14 14
11 11 11 12 12 12 12 12 13 13 13 13 13 14 14 14 14 14 14 14 14 14 14 14 15 15 15 15 15 15 15 15 15 14 14 14 14 14 14 14 14 13 13
10 11 11 11 11 11 12 12 12 12 13 13 13 13 13 14 14 14 14 14 14 14 14 14 14 14 14 14 14 14 14 14 14 14 14 14 14 13 13 13 13 13 13
10 10 10 10 11 11 11 11 12 12 12 12 13 13 13 13 13 13 13 14 14 13 14 14 14 14 14 14 14 14 13 13 13 13 13 13 13 13 13 13 13 13 13
10 10 10 10 10 11 11 11 11 12 12 12 12 12 13 13 13 13 13 13 13 13 13 13 14 13 13 13 13 13 13 13 13 13 13 12 12 12 12 12 12 12 12
9 10 10 10 10 10 10 11 11 11 11 12 12 12 12 12 13 13 13 13 13 13 13 13 13 13 13 13 13 13 13 13 12 12 12 12 12 12 12 12 12 12 12
9 9 9 10 10 10 10 10 10 11 11 11 12 12 12 12 12 13 13 13 13 13 13 13 13 13 13 13 13 13 13 13 13 12 12 12 11 11 11 11 11 11 11
9 9 9 9 9 9 10 10 10 10 11 11 11 11 12 12 12 12 13 13 13 13 13 13 13 14 14 13 13 13 13 12 12 12 12 11 11 11 11 11 11 11 11
9 9 9 9 9 9 9 10 10 10 10 11 11 11 11 12 12 12 12 13 13 13 13 13 13 13 13 13 13 13 12 12 12 11 11 11 11 10 10 10 10 10 10
10 9 9 9 9 9 9 9 10 10 10 10 11 11 11 11 12 12 12 12 13 13 13 13 13 13 13 13 13 13 13 12 12 11 11 11 11 10 10 10 10 10 10
Wind_Speed
4 4 5 7 8 9 7 6 6 6 5 6 6 6 6 7 8 8 9 10 11 10 10 10 9 9 8 8 9 9 9 9 10 10 11 11 10 10 10 9 9 8 8
5 4 5 5 6 8 8 7 6 5 5 4 5 6 7 8 9 10 10 11 12 12 11 11 11 11 10 9 10 9 9 10 10 10 10 10 10 9 9 8 7 7 6
6 5 5 6 6 8 8 5 5 5 4 5 6 6 6 7 8 10 10 10 10 12 12 12 12 12 11 11 10 10 10 10 10 10 10 10 9 9 8 7 6 6 5
8 5 5 5 6 6 5 5 5 5 5 5 4 4 4 5 7 9 10 10 10 10 12 13 13 12 12 12 12 11 11 10 10 10 10 10 9 9 8 7 6 5 4
7 5 5 5 6 5 5 6 5 5 4 5 4 4 4 4 5 7 7 10 11 11 11 12 13 13 13 12 12 12 12 12 11 10 10 10 9 9 8 7 6 5 3
7 5 4 5 5 5 6 6 6 5 4 4 4 3 2 3 4 6 7 8 10 11 11 11 11 12 13 13 12 12 12 12 12 11 11 10 10 9 8 7 6 5 3
7 5 5 5 5 6 7 7 5 6 5 4 2 1 1 2 3 4 5 5 7 10 11 12 11 11 11 13 13 13 12 12 12 12 11 11 10 10 8 7 6 5 4
7 5 5 5 5 5 6 7 6 5 5 5 4 2 1 1 2 4 4 6 7 7 8 11 12 12 11 11 13 14 13 12 13 12 12 11 11 10 9 8 6 5 4
7 6 6 5 5 6 6 7 8 8 6 6 5 4 4 5 2 2 5 5 6 6 7 8 11 13 13 12 12 14 14 13 13 12 12 11 11 11 9 8 7 6 5
6 6 5 6 6 6 7 7 7 7 7 6 5 4 3 3 4 3 1 3 5 7 8 7 9 12 14 13 13 14 15 14 14 13 12 12 11 11 10 8 8 7 5
6 5 5 4 5 5 7 7 6 7 7 7 6 5 4 2 2 3 3 3 2 4 6 7 6 9 13 13 13 15 16 16 15 13 12 12 11 11 10 9 8 7 6
5 6 5 4 4 4 6 7 7 8 8 7 6 6 6 5 5 4 3 3 3 3 3 5 6 7 11 13 15 16 17 16 15 15 13 12 12 11 11 10 9 8 7
5 7 6 5 4 4 4 5 6 7 8 8 9 7 7 6 4 5 4 3 3 2 2 3 5 6 10 12 14 16 16 17 16 15 13 12 12 11 11 10 9 8 8
6 7 7 6 5 4 4 3 4 6 6 8 9 9 7 7 6 6 6 5 4 3 4 4 3 5 8 11 13 16 14 17 17 16 14 13 12 11 11 10 9 8 8
6 8 7 7 6 5 4 3 2 3 4 6 7 8 7 6 7 7 6 6 7 6 7 5 4 4 6 9 12 14 13 16 17 17 15 14 13 12 11 10 9 8 7
8 8 7 7 7 6 5 4 2 2 2 3 4 6 7 6 6 7 7 7 6 6 5 5 4 3 5 7 11 12 12 15 16 16 15 14 12 11 10 10 10 9 8
8 9 8 7 7 7 6 5 4 3 1 1 2 4 6 6 6 7 7 7 7 6 5 3 2 3 5 7 8 10 10 10 11 14 14 14 13 12 11 10 10 10 9
8 8 8 8 7 7 7 6 5 4 3 2 2 2 4 5 6 6 7 8 7 6 5 6 3 4 4 7 8 8 8 9 10 13 14 14 13 12 11 11 11 10 9
8 8 8 8 7 7 7 6 5 4 4 3 2 2 3 3 5 5 6 7 7 7 5 5 4 3 3 6 7 7 7 6 9 12 14 13 13 13 13 12 12 11 10
7 8 8 7 7 7 6 6 5 5 4 3 2 1 1 2 4 6 6 7 7 7 6 7 6 5 4 6 7 8 7 5 6 8 11 12 14 14 13 13 12 11 11
7 7 7 8 8 6 6 6 5 5 4 4 3 2 1 1 1 3 5 6 7 7 7 7 7 6 6 8 8 6 8 8 6 5 7 7 10 10 10 12 12 12 11
7 7 7 7 8 7 11 10 6 4 4 4 4 3 3 3 3 1 4 8 9 9 8 7 6 8 8 8 7 9 9 7 4 5 6 6 6 7 8 10 12 12 12
6 6 7 7 7 9 12 12 9 5 4 4 4 3 3 3 3 2 1 5 8 9 10 8 9 8 9 10 11 10 9 7 5 7 6 5 5 6 7 10 12 13 12
5 5 6 6 6 8 13 12 10 5 4 4 4 3 2 3 2 2 3 4 4 4 6 7 7 8 8 9 9 9 11 10 9 5 4 4 3 4 5 8 11 12 12
5 5 4 5 6 8 12 12 9 4 4 4 4 4 3 2 2 2 4 5 5 4 5 7 8 10 13 15 14 12 11 12 7 3 2 4 4 3 3 3 8 11 11
4 5 5 5 5 6 10 12 10 3 4 4 4 4 5 3 1 2 3 5 6 5 6 8 9 11 12 15 16 12 12 12 7 4 3 4 5 4 3 1 3 6 8
Wind_Direction
249 242 238 232 227 225 220 211 203 199 202 205 209 215 220 225 233 237 238 239 235 225 213 201 197 193 189 180 168 161 156 154 147 144 142 140 138 134 131 128 125 121 117
250 242 242 232 230 224 217 208 199 196 201 203 210 214 219 223 229 231 232 236 236 227 217 210 204 199 195 187 177 170 164 160 157 153 151 149 147 145 140 137 134 130 123
263 247 243 236 232 226 214 201 199 196 204 209 216 215 214 217 220 223 222 223 227 223 215 213 209 202 199 193 184 178 173 169 167 164 162 159 157 155 153 150 145 142 137
269 256 250 245 234 221 210 202 197 199 208 209 214 217 215 212 218 218 215 213 213 214 214 215 212 206 204 198 190 186 182 180 177 175 173 170 168 166 165 164 159 157 155
277 255 245 244 234 218 212 212 201 198 205 210 218 221 218 218 216 213 206 207 206 205 206 213 213 209 207 203 199 193 190 188 186 185 182 178 177 176 174 172 172 171 171
285 268 251 243 230 221 218 213 205 199 202 203 229 235 220 228 212 207 206 203 203 203 203 206 210 211 209 207 205 201 198 194 193 194 190 185 183 184 184 183 182 183 187
293 273 261 248 230 226 222 213 205 206 206 176 166 280 310 232 214 214 203 193 199 203 200 203 204 204 209 212 210 207 205 201 199 200 199 192 188 188 189 188 187 189 195
301 287 259 248 236 232 227 215 202 198 200 179 165 146 227 289 255 217 198 201 204 195 200 205 203 203 202 204 210 212 213 208 206 205 203 197 191 190 191 189 191 195 194
303 289 270 255 242 230 229 221 209 201 205 194 183 165 171 206 216 225 211 203 195 195 203 199 203 205 203 203 206 213 214 214 212 209 203 197 194 192 191 190 192 189 180
305 298 280 260 247 237 234 228 218 209 201 199 196 198 179 156 163 196 232 203 199 202 202 203 203 206 204 203 206 209 211 212 212 210 203 199 195 192 188 190 187 177 170
316 314 298 276 256 243 237 231 224 215 208 200 188 181 179 175 166 165 188 195 204 213 204 201 196 201 203 204 205 208 208 209 210 209 207 200 193 191 188 186 181 177 173
323 327 317 296 278 261 246 235 225 219 216 208 199 187 177 173 184 174 171 178 195 207 200 199 198 198 201 204 207 206 204 205 207 205 203 197 193 190 188 187 184 181 180
330 331 330 315 295 277 263 245 226 222 216 212 208 205 198 191 168 164 160 158 171 189 187 206 205 197 200 200 205 201 200 200 200 199 199 195 191 188 187 187 186 185 184
325 330 335 338 330 312 290 262 239 227 218 216 214 208 205 201 190 180 170 161 167 186 201 210 194 193 193 194 198 193 195 194 193 193 191 187 185 183 182 185 186 186 183
338 343 345 349 348 345 333 305 262 242 223 217 215 211 209 202 197 198 187 179 177 190 207 203 196 190 183 182 186 186 187 190 188 185 181 180 180 182 184 184 180 174 169
346 346 352 353 355 355 353 349 326 288 244 226 212 207 207 201 200 200 199 196 193 185 195 190 194 176 175 175 176 173 177 177 177 176 175 174 172 170 169 169 163 156 152
349 352 351 353 356 356 357 358 354 343 309 267 236 216 212 202 198 199 196 197 198 187 187 177 168 162 165 163 157 158 159 158 162 162 162 162 163 162 160 156 152 151 149
348 349 352 355 357 356 355 358 357 349 336 317 280 235 224 212 200 195 197 196 194 185 177 171 166 168 166 163 153 149 145 149 148 151 150 151 154 156 154 152 151 148 145
348 352 355 355 350 346 346 347 348 347 341 322 304 266 239 214 208 201 196 194 189 185 169 160 156 146 139 151 143 136 134 129 138 140 140 143 144 143 142 141 140 139 137
349 349 347 345 342 339 339 342 348 348 345 339 326 301 270 231 216 201 195 188 176 171 166 162 153 146 141 145 146 144 138 126 127 129 126 127 129 127 130 131 132 133 130
350 344 346 347 344 340 342 348 348 346 346 350 355 0 355 20 205 193 188 179 172 168 166 162 154 151 152 157 157 147 140 129 111 120 120 115 116 112 116 122 125 127 127
343 347 350 346 347 348 347 357 2 349 346 354 356 359 6 30 34 55 189 184 176 170 170 164 157 162 162 155 145 147 142 138 127 130 120 108 107 109 106 113 123 125 125
341 344 346 348 345 340 351 2 8 7 354 354 355 355 8 19 24 19 127 166 173 174 173 163 161 165 163 161 154 153 149 133 123 139 120 104 101 100 95 109 120 122 122
336 335 337 342 341 345 356 0 6 9 2 1 358 352 356 355 2 43 85 107 117 137 161 164 166 164 159 155 150 142 132 113 105 104 101 108 105 98 91 96 111 115 118
335 331 329 342 346 341 353 359 5 357 4 359 352 352 354 354 357 96 112 118 109 97 102 129 136 139 143 142 138 134 136 138 134 120 84 111 125 103 86 77 92 110 118
322 327 334 342 344 340 348 356 2 356 359 354 351 353 352 351 11 120 125 130 127 120 118 114 115 123 134 143 145 150 152 149 139 136 145 121 135 132 119 88 90 107 111
Height
1534 1535 1536 1537 1538 1540 1541 1542 1543 1544 1545 1546 1548 1549 1551 1553 1555 1557 1558 1560 1561 1561 1562 1562 1563 1564 1565 1567 1568 1569 1571 1572 1573 1575 1576 1577 1578 1579 1580 1581 1582 1583 1584
1530 1530 1531 1533 1534 1536 1537 1538 1540 1541 1542 1544 1545 1547 1549 1551 1553 1555 1557 1558 1559 1560 1560 1561 1562 1563 1564 1566 1567 1569 1570 1572 1573 1574 1576 1577 1578 1579 1581 1582 1582 1583 1584
1525 1526 1527 1528 1530 1532 1533 1535 1536 1537 1539 1541 1542 1544 1546 1548 1550 1553 1555 1556 1557 1558 1559 1560 1560 1562 1563 1565 1566 1568 1569 1571 1572 1574 1575 1577 1578 1579 1580 1581 1582 1583 1584
1521 1522 1523 1524 1526 1527 1529 1530 1532 1534 1535 1537 1539 1541 1543 1546 1548 1550 1552 1554 1556 1557 1558 1558 1559 1560 1562 1563 1565 1566 1568 1570 1572 1573 1575 1576 1577 1579 1580 1581 1581 1582 1583
1516 1517 1518 1519 1521 1522 1524 1525 1527 1529 1531 1533 1536 1538 1540 1542 1545 1547 1549 1551 1553 1555 1556 1557 1558 1559 1560 1562 1563 1565 1567 1568 1570 1572 1574 1575 1577 1578 1579 1580 1580 1581 1582
1512 1512 1513 1515 1516 1517 1519 1521 1522 1524 1526 1529 1532 1533 1536 1538 1541 1543 1546 1548 1550 1552 1554 1555 1556 1557 1559 1560 1561 1563 1565 1567 1569 1571 1572 1574 1575 1576 1578 1578 1579 1580 1581
1507 1507 1508 1509 1511 1512 1514 1516 1518 1520 1521 1524 1527 1529 1531 1534 1536 1539 1542 1545 1547 1549 1551 1553 1555 1556 1557 1558 1560 1561 1563 1565 1567 1569 1571 1572 1574 1575 1576 1577 1578 1579 1579
1503 1503 1503 1504 1505 1507 1509 1510 1512 1514 1516 1519 1522 1524 1526 1530 1531 1534 1537 1540 1543 1546 1548 1550 1552 1554 1555 1556 1558 1559 1561 1563 1565 1567 1569 1570 1572 1573 1574 1575 1576 1577 1578
1499 1498 1499 1499 1500 1502 1503 1505 1507 1509 1511 1513 1516 1519 1521 1523 1526 1529 1532 1535 1539 1542 1544 1547 1549 1551 1553 1554 1556 1557 1559 1561 1563 1565 1567 1568 1570 1571 1572 1574 1575 1575 1576
1495 1494 1494 1495 1495 1496 1498 1500 1502 1503 1506 1508 1510 1513 1516 1518 1521 1523 1527 1530 1533 1537 1540 1543 1546 1548 1550 1552 1554 1555 1557 1559 1561 1562 1564 1566 1568 1569 1571 1572 1573 1574 1574
1492 1491 1490 1490 1491 1492 1493 1495 1496 1498 1500 1502 1504 1506 1510 1513 1516 1519 1521 1524 1528 1531 1535 1538 1541 1544 1547 1549 1551 1553 1555 1556 1558 1560 1562 1564 1566 1567 1569 1570 1571 1572 1573
1490 1488 1487 1487 1487 1487 1488 1490 1491 1493 1495 1497 1499 1501 1503 1507 1510 1513 1516 1518 1522 1526 1529 1533 1536 1539 1543 1546 1548 1550 1552 1554 1556 1558 1560 1561 1563 1565 1567 1568 1569 1570 1571
1488 1486 1485 1484 1483 1483 1484 1485 1486 1487 1489 1491 1493 1495 1498 1501 1504 1508 1512 1514 1517 1520 1523 1527 1530 1534 1538 1541 1544 1547 1549 1551 1553 1555 1557 1559 1561 1563 1564 1566 1567 1569 1570
1487 1485 1483 1482 1481 1480 1481 1481 1482 1483 1484 1486 1487 1489 1491 1494 1498 1501 1505 1510 1513 1515 1518 1521 1524 1528 1532 1536 1539 1543 1545 1548 1550 1552 1554 1557 1559 1560 1562 1564 1566 1567 1568
1487 1484 1482 1481 1479 1478 1478 1478 1478 1479 1480 1481 1482 1484 1486 1489 1492 1495 1499 1503 1508 1509 1512 1515 1519 1523 1526 1530 1534 1537 1540 1543 1546 1549 1551 1554 1556 1558 1560 1562 1563 1565 1566
1487 1484 1482 1480 1478 1477 1476 1476 1476 1476 1476 1477 1478 1479 1481 1483 1486 1489 1492 1496 1500 1504 1507 1510 1513 1517 1521 1525 1528 1532 1535 1539 1542 1545 1548 1550 1553 1555 1557 1559 1561 1562 1564
1487 1484 1481 1479 1477 1476 1475 1474 1474 1474 1474 1474 1474 1476 1477 1479 1481 1483 1486 1489 1493 1497 1500 1504 1508 1512 1515 1519 1523 1526 1530 1534 1537 1540 1544 1547 1549 1552 1554 1556 1558 1560 1561
1487 1484 1481 1479 1477 1476 1474 1473 1473 1472 1472 1472 1472 1472 1473 1475 1476 1479 1481 1483 1486 1490 1495 1498 1502 1505 1509 1514 1518 1521 1525 1529 1532 1536 1539 1543 1546 1549 1551 1553 1555 1557 1559
1487 1484 1482 1479 1477 1475 1474 1473 1471 1471 1470 1470 1469 1469 1470 1472 1473 1475 1476 1479 1482 1485 1489 1493 1496 1500 1504 1508 1513 1517 1521 1525 1528 1532 1536 1539 1542 1545 1548 1550 1552 1554 1556
1488 1485 1482 1480 1477 1475 1474 1472 1471 1470 1469 1468 1468 1468 1468 1469 1469 1471 1472 1475 1478 1481 1484 1488 1492 1496 1500 1504 1508 1512 1517 1521 1525 1528 1532 1536 1539 1542 1545 1547 1549 1552 1554
1489 1486 1483 1480 1478 1476 1474 1472 1470 1469 1468 1467 1467 1466 1467 1467 1467 1468 1469 1471 1474 1477 1481 1484 1488 1492 1496 1501 1505 1509 1514 1518 1522 1526 1529 1533 1536 1539 1542 1545 1547 1549 1551
1489 1486 1483 1481 1478 1476 1474 1472 1470 1469 1468 1467 1466 1466 1466 1466 1465 1466 1468 1470 1472 1475 1478 1481 1485 1489 1493 1497 1502 1507 1511 1515 1520 1524 1527 1531 1534 1537 1540 1543 1545 1547 1549
1489 1486 1484 1481 1478 1476 1474 1472 1470 1469 1468 1467 1466 1466 1465 1465 1465 1466 1467 1468 1471 1474 1477 1480 1483 1486 1490 1494 1499 1504 1509 1513 1517 1521 1526 1529 1532 1535 1539 1541 1543 1545 1547
1489 1486 1483 1481 1478 1476 1474 1472 1470 1469 1468 1467 1466 1466 1465 1465 1465 1466 1467 1468 1470 1472 1475 1479 1483 1486 1490 1494 1498 1502 1507 1512 1517 1521 1525 1528 1531 1535 1538 1540 1542 1544 1546
1489 1486 1483 1481 1479 1476 1474 1472 1471 1469 1468 1467 1466 1466 1465 1465 1465 1466 1467 1469 1470 1472 1475 1479 1482 1486 1490 1493 1497 1502 1506 1510 1515 1520 1524 1527 1530 1534 1537 1539 1541 1543 1544
1489 1486 1483 1481 1478 1476 1474 1472 1471 1470 1468 1467 1466 1466 1466 1466 1466 1467 1468 1469 1471 1473 1476 1479 1482 1486 1490 1493 1498 1502 1505 1509 1513 1518 1522 1525 1529 1532 1536 1538 1540 1542 1543